VELOX 2

Last updated on Wed Feb 06 2019 03:05:25 GMT+0000 (Coordinated Universal Time)

1 41171U 15077F 19036.82365875 .00001444 00000-0 45169-4 0 9999 2 41171 14.9909 131.8527 0009055 355.2013 4.8221 15.11004506173622
UTC large
Height (km)
Speed (km/s)
/
Latitude / Longitude
Inclination (degrees)
Orbital Period (minutes)
Azimuth
Elevation
Range (km)
Doppler Factor

Next 0 passes for location: London (51.5072 / 0.1276)

Sorry there are no passes over London.
VELOX 2